DW1086 Weather Reports


time (UTC)temp
F
wind
direction
speed
knots
gust
knots
rain 1hr
in
rain 24hr
in
rain mn
in
humidity
%
barometer
mb
20260906091103 62 149 0.0 0.0 0.00 0.26 0.26 89 1011.9
20260906090603 62 149 0.0 0.0 0.00 0.26 0.26 89 1011.9
20260906090104 62 149 0.0 0.0 0.00 0.26 0.26 89 1011.8
20260906085604 62 149 0.0 0.9 0.00 0.26 0.26 89 1011.8
20260906085103 62 149 0.0 0.9 0.00 0.26 0.26 89 1011.8
20260906084604 62 149 0.9 1.7 0.00 0.26 0.26 89 1011.8
20260906083604 62 149 0.0 0.9 0.00 0.26 0.26 89 1011.8
20260906083104 63 149 0.9 5.2 0.00 0.26 0.26 89 1011.7
20260906082603 63 158 1.7 4.3 0.00 0.26 0.26 89 1011.7
20260906082104 63 145 2.6 6.1 0.00 0.26 0.26 89 1011.7
20260906081104 63 153 1.7 2.6 0.00 0.26 0.26 89 1011.9
20260906080104 63 121 0.0 0.0 0.00 0.26 0.26 89 1011.9
20260906075603 63 121 0.9 1.7 0.00 0.26 0.26 89 1011.8
20260906075103 63 150 0.0 1.7 0.00 0.26 0.26 89 1011.8
20260906074603 63 150 0.0 0.0 0.00 0.26 0.26 89 1011.8
20260906074104 63 150 0.0 1.7 0.00 0.26 0.26 89 1011.8
20260906073103 63 145 0.9 2.6 0.00 0.26 0.26 89 1011.8
20260906072604 63 137 0.9 2.6 0.00 0.26 0.26 89 1011.6
20260906071604 63 137 1.7 4.3 0.00 0.26 0.26 89 1011.7
20260906071104 63 130 1.7 6.1 0.00 0.26 0.26 89 1011.6
20260906070604 63 145 2.6 4.3 0.00 0.26 0.26 89 1011.7
20260906070103 63 143 1.7 4.3 0.01 0.26 0.26 89 1011.8
20260906065603 64 141 2.6 6.1 0.01 0.26 0.26 89 1011.8
20260906065104 64 142 0.9 2.6 0.01 0.26 0.26 89 1011.8
20260906064604 64 133 1.7 2.6 0.01 0.26 0.26 89 1011.8
20260906064103 64 127 1.7 7.0 0.01 0.26 0.26 89 1011.8
20260906062604 65 121 1.7 2.6 0.01 0.26 0.26 89 1011.8
20260906062103 65 132 1.7 2.6 0.01 0.26 0.26 89 1012.1
20260906061603 65 118 1.7 2.6 0.01 0.26 0.26 89 1012.1
20260906060603 65 133 0.9 1.7 0.01 0.26 0.26 89 1012.1
20260906060103 66 112 1.7 2.6 0.00 0.25 0.25 89 1012.1
20260906055604 66 181 0.0 2.6 0.00 0.25 0.25 89 1012.0
20260906055103 66 128 0.9 2.6 0.00 0.25 0.25 89 1012.0
20260906054604 66 83 0.0 2.6 0.00 0.25 0.25 89 1012.0
20260906054104 66 103 0.0 2.6 0.00 0.25 0.25 89 1012.0
20260906053603 66 130 0.0 0.9 0.00 0.25 0.25 88 1012.0
20260906053103 66 130 0.9 2.6 0.00 0.25 0.25 88 1012.0
20260906052604 66 125 1.7 2.6 0.00 0.25 0.25 88 1012.0
20260906052103 66 133 0.9 2.6 0.01 0.25 0.25 88 1012.0
20260906051604 66 147 0.9 2.6 0.01 0.25 0.25 88 1012.0
20260906051103 66 138 0.0 0.0 0.05 0.25 0.25 88 1012.0
20260906050604 66 138 0.0 1.7 0.15 0.25 0.25 88 1012.0
20260906050103 66 98 0.9 2.6 0.24 0.25 0.25 88 1012.2
20260906044604 66 135 2.6 5.2 0.25 0.25 0.25 87 1012.0
20260906044103 66 146 2.6 4.3 0.25 0.25 0.25 87 1011.9
20260906043603 66 158 2.6 6.1 0.25 0.25 0.25 87 1011.9
20260906043104 67 169 0.9 5.2 0.25 0.25 0.25 86 1011.9
20260906042103 67 172 2.6 10.4 0.24 0.24 0.24 86 1012.0
20260906041604 67 183 2.6 7.8 0.24 0.24 0.24 86 1012.0
20260906041104 68 169 5.2 10.4 0.20 0.20 0.20 85 1012.3
20260906040604 68 118 2.6 7.0 0.10 0.10 0.10 85 1012.2
20260906035604 68 108 4.3 8.7 0.00 0.00 0.00 84 1011.9
20260906034603 68 121 1.7 6.1 0.00 0.00 0.00 84 1011.9
20260906033603 68 135 2.6 7.0 0.00 0.00 0.00 84 1011.4
20260906033104 69 138 2.6 5.2 0.00 0.00 0.00 83 1011.4
20260906032604 69 134 0.9 2.6 0.00 0.00 0.00 83 1011.4
20260906032104 69 156 0.0 0.9 0.00 0.00 0.00 82 1011.4
20260906031603 69 156 0.0 0.9 0.00 0.00 0.00 82 1011.4
20260906031104 69 156 0.0 1.7 0.00 0.00 0.00 82 1011.6
20260906025604 69 127 0.9 1.7 0.00 0.00 0.00 82 1011.5
20260906025104 69 127 0.9 1.7 0.00 0.00 0.00 81 1011.5
20260906024604 69 127 0.9 1.7 0.00 0.00 0.00 81 1011.5
20260906024104 69 127 0.9 2.6 0.00 0.00 0.00 80 1011.5
20260906023603 70 130 0.9 1.7 0.00 0.00 0.00 80 1011.5
20260906023104 70 130 0.0 1.7 0.00 0.00 0.00 79 1011.3
20260906022603 70 135 1.7 4.3 0.00 0.00 0.00 79 1011.3
20260906021604 70 186 0.9 4.3 0.00 0.00 0.00 79 1011.3
20260906021104 71 171 0.9 2.6 0.00 0.00 0.00 78 1011.3
20260906020104 71 132 1.7 4.3 0.00 0.00 0.00 78 1011.3
20260906015604 71 145 1.7 2.6 0.00 0.00 0.00 77 1010.9
20260906015104 71 144 1.7 2.6 0.00 0.00 0.00 77 1010.9
20260906014603 71 150 1.7 2.6 0.00 0.00 0.00 77 1010.9
20260906014103 72 157 1.7 5.2 0.00 0.00 0.00 77 1010.9
20260906013603 72 138 2.6 6.1 0.00 0.00 0.00 77 1010.9
20260906013104 72 145 4.3 7.8 0.00 0.00 0.00 77 1010.9
20260906012603 73 138 1.7 6.1 0.00 0.00 0.00 77 1010.9
20260906012104 73 114 1.7 5.2 0.00 0.00 0.00 77 1010.9
20260906011103 73 105 1.7 5.2 0.00 0.00 0.00 76 1010.8
20260906010603 74 108 3.5 7.0 0.00 0.00 0.00 76 1010.8
20260906010103 74 0 2.6 7.0 0.00 0.00 0.00 76 1010.8
20260906005603 74 3 3.5 7.0 0.00 0.00 0.00 74 1010.6
20260906005104 74 114 4.3 10.4 0.00 0.00 0.00 74 1010.6
20260906004603 74 118 3.5 7.0 0.00 0.00 0.00 73 1010.6
20260906004104 74 64 2.6 7.0 0.00 0.00 0.00 72 1010.7
20260906003604 75 31 4.3 8.7 0.00 0.00 0.00 72 1010.6
20260906002603 74 52 6.1 10.4 0.00 0.00 0.00 70 1010.3
20260906001603 75 68 4.3 8.7 0.00 0.00 0.00 70 1009.9
20260906001103 75 55 5.2 10.4 0.00 0.00 0.00 70 1009.9
20260906000604 74 68 4.3 8.7 0.00 0.00 0.00 69 1009.9
20260905235603 75 54 4.3 8.7 0.00 0.00 0.00 68 1009.9
20260905235104 75 65 4.3 8.7 0.00 0.00 0.00 68 1009.9
20260905234603 75 44 3.5 7.8 0.00 0.00 0.00 68 1009.8
20260905234104 75 62 3.5 7.8 0.00 0.00 0.00 67 1009.9
20260905233603 75 53 2.6 8.7 0.00 0.00 0.00 68 1009.9
20260905233104 75 65 4.3 7.0 0.00 0.00 0.00 68 1009.8
20260905232604 75 59 3.5 8.7 0.00 0.00 0.00 67 1009.8
20260905232103 75 53 3.5 8.7 0.00 0.00 0.00 67 1009.8
20260905231603 75 56 4.3 7.0 0.00 0.00 0.00 67 1009.8
20260905231103 75 64 5.2 10.4 0.00 0.00 0.00 66 1009.6
20260905230603 75 59 4.3 10.4 0.00 0.00 0.00 67 1009.6
20260905230103 74 64 5.2 10.4 0.00 0.00 0.00 67 1009.6
20260905225604 74 53 2.6 6.1 0.00 0.00 0.00 67 1009.6
20260905224604 75 56 2.6 4.3 0.00 0.00 0.00 67 1009.5
20260905224103 75 58 1.7 4.3 0.00 0.00 0.00 68 1009.5
20260905223603 75 28 3.5 7.0 0.00 0.00 0.00 67 1009.5
20260905222604 75 70 1.7 5.2 0.00 0.00 0.00 67 1009.5
20260905222103 75 71 1.7 4.3 0.00 0.00 0.00 67 1009.4
20260905221603 75 61 2.6 5.2 0.00 0.00 0.00 66 1009.4
20260905221103 75 66 0.9 2.6 0.00 0.00 0.00 66 1009.3
20260905220604 75 85 2.6 5.2 0.00 0.00 0.00 66 1009.3
20260905220104 75 100 1.7 5.2 0.00 0.00 0.00 66 1009.2
20260905215604 75 90 1.7 2.6 0.00 0.00 0.00 65 1009.3
20260905215104 75 95 0.9 2.6 0.00 0.00 0.00 66 1009.4
20260905214604 75 100 1.7 2.6 0.00 0.00 0.00 65 1009.2
20260905214104 75 74 1.7 2.6 0.00 0.00 0.00 65 1009.2
20260905213604 76 61 1.7 2.6 0.00 0.00 0.00 65 1009.2
20260905213104 76 103 0.0 2.6 0.00 0.00 0.00 64 1009.0
20260905212603 76 64 1.7 4.3 0.00 0.00 0.00 64 1009.0
20260905211604 76 85 1.7 2.6 0.00 0.00 0.00 64 1009.0
20260905211103 76 89 1.7 2.6 0.00 0.00 0.00 65 1009.0
20260905210603 76 77 1.7 4.3 0.00 0.00 0.00 63 1008.9
20260905205604 76 98 1.7 2.6 0.00 0.00 0.00 64 1008.9
20260905205103 77 48 2.6 7.0 0.00 0.00 0.00 63 1008.9
20260905204603 77 41 4.3 7.8 0.00 0.00 0.00 62 1008.9
20260905204104 77 9 2.6 5.2 0.00 0.00 0.00 62 1008.8
20260905203604 77 0 1.7 5.2 0.00 0.00 0.00 61 1008.7
20260905203103 77 0 0.9 4.3 0.00 0.00 0.00 61 1008.7
20260905202103 78 8 2.6 4.3 0.00 0.00 0.00 59 1008.8
20260905201603 79 4 1.7 2.6 0.00 0.00 0.00 57 1008.8
20260905201105 80 315 3.5 7.0 0.00 0.00 0.00 56 1008.8
20260905200104 81 357 0.9 4.3 0.00 0.00 0.00 55 1008.8
20260905195603 81 344 1.7 6.1 0.00 0.00 0.00 55 1008.8
20260905195104 81 306 1.7 7.0 0.00 0.00 0.00 58 1008.8
20260905194103 80 348 0.9 4.3 0.00 0.00 0.00 57 1008.7
20260905193603 81 342 1.7 4.3 0.00 0.00 0.00 59 1008.6
20260905193104 81 344 1.7 6.1 0.00 0.00 0.00 58 1008.7
20260905192604 81 245 1.7 4.3 0.00 0.00 0.00 57 1008.8
20260905191603 80 318 1.7 4.3 0.00 0.00 0.00 60 1009.1
20260905191103 80 27 2.6 5.2 0.00 0.00 0.00 60 1009.1
20260905190604 80 282 1.7 7.0 0.00 0.00 0.00 57 1009.1
20260905190103 80 317 0.9 5.2 0.00 0.00 0.00 60 1009.1
20260905185603 80 253 1.7 5.2 0.00 0.00 0.00 56 1009.1
20260905185103 81 288 1.7 4.3 0.00 0.00 0.00 61 1009.1
20260905184603 80 303 2.6 6.1 0.00 0.00 0.00 58 1009.0
20260905184104 80 302 2.6 5.2 0.00 0.00 0.00 56 1009.2
20260905183604 80 26 0.9 7.0 0.00 0.00 0.00 58 1009.2
20260905183103 80 300 0.9 7.0 0.00 0.00 0.00 64 1009.3
20260905182604 79 29 0.9 4.3 0.00 0.00 0.00 61 1009.3
20260905181603 78 359 0.9 2.6 0.00 0.00 0.00 62 1009.6
20260905181103 78 321 2.6 6.1 0.00 0.00 0.00 58 1009.6
20260905180604 79 357 1.7 4.3 0.00 0.00 0.00 60 1009.6
20260905180103 80 297 2.6 6.1 0.00 0.00 0.00 63 1009.6
20260905175603 80 309 2.6 5.2 0.00 0.00 0.00 60 1009.6
20260905174603 79 334 2.6 5.2 0.00 0.00 0.00 61 1009.6
20260905173604 79 350 0.9 2.6 0.00 0.00 0.00 65 1009.7
20260905173103 79 317 1.7 4.3 0.00 0.00 0.00 62 1009.7
20260905172604 79 38 0.9 5.2 0.00 0.00 0.00 64 1009.7
20260905172103 79 34 1.7 4.3 0.00 0.00 0.00 63 1009.7
20260905171604 78 242 0.9 2.6 0.00 0.00 0.00 64 1009.7
20260905171103 77 328 1.7 5.2 0.00 0.00 0.00 66 1009.8
20260905170604 77 14 0.9 2.6 0.00 0.00 0.00 64 1009.7
20260905165604 78 61 2.6 6.1 0.00 0.00 0.00 66 1009.7
20260905165103 76 26 1.7 2.6 0.00 0.00 0.00 69 1009.8
20260905164103 74 320 1.7 2.6 0.00 0.00 0.00 70 1009.8
20260905163103 74 355 1.7 2.6 0.00 0.00 0.00 69 1009.8
20260905162604 75 0 1.7 4.3 0.00 0.00 0.00 70 1009.8
20260905162104 76 58 1.7 2.6 0.00 0.00 0.00 69 1009.7
20260905161604 77 48 1.7 4.3 0.00 0.00 0.00 69 1009.7
20260905161104 78 328 1.7 5.2 0.00 0.00 0.00 69 1009.7
20260905160603 77 73 3.5 6.1 0.00 0.00 0.00 68 1009.7
20260905160104 78 330 2.6 6.1 0.00 0.00 0.00 70 1009.8
20260905155604 77 9 2.6 4.3 0.00 0.00 0.00 68 1009.8
20260905155103 77 5 2.6 5.2 0.00 0.00 0.00 69 1009.8
20260905154603 77 317 2.6 6.1 0.00 0.00 0.00 68 1009.9
20260905154104 77 337 1.7 7.0 0.00 0.00 0.00 72 1009.8
20260905153603 76 317 2.6 7.0 0.00 0.00 0.00 69 1009.9
20260905152603 76 319 1.7 6.1 0.00 0.00 0.00 71 1009.9
20260905152104 76 312 2.6 7.8 0.00 0.00 0.00 69 1009.8
20260905151603 77 294 1.7 5.2 0.00 0.00 0.00 71 1009.9
20260905151103 76 34 1.7 2.6 0.00 0.00 0.00 71 1009.9
20260905150603 77 328 1.7 2.6 0.00 0.00 0.00 70 1009.9
20260905150103 76 328 2.6 6.1 0.00 0.00 0.00 70 1009.9
20260905145604 76 8 1.7 6.1 0.00 0.00 0.00 72 1009.9
20260905145104 75 18 2.6 4.3 0.00 0.00 0.00 71 1009.9
20260905144604 75 332 1.7 5.2 0.00 0.00 0.00 72 1009.9
20260905144103 75 327 1.7 4.3 0.00 0.00 0.00 70 1010.0
20260905143604 74 29 1.7 2.6 0.00 0.00 0.00 73 1010.0
20260905143103 73 284 1.7 4.3 0.00 0.00 0.00 73 1010.0
20260905142603 73 40 1.7 2.6 0.00 0.00 0.00 74 1009.9
20260905142103 73 51 2.6 4.3 0.00 0.00 0.00 74 1009.9
20260905141604 73 52 2.6 5.2 0.00 0.00 0.00 73 1010.0
20260905140603 73 50 3.5 7.0 0.00 0.00 0.00 72 1010.0
20260905140104 74 43 2.6 4.3 0.00 0.00 0.00 71 1010.0
20260905135603 74 64 4.3 7.8 0.00 0.00 0.00 71 1010.0
20260905135103 74 76 4.3 7.8 0.00 0.00 0.00 72 1010.0
20260905134603 74 23 4.3 7.0 0.00 0.00 0.00 70 1010.0
20260905134104 74 49 2.6 7.0 0.00 0.00 0.00 73 1010.0
20260905133603 74 45 2.6 6.1 0.00 0.00 0.00 71 1010.0
20260905133103 74 54 1.7 6.1 0.00 0.00 0.00 74 1010.0
20260905131603 73 41 2.6 6.1 0.00 0.00 0.00 72 1010.1
20260905131104 73 51 4.3 7.0 0.00 0.00 0.00 71 1010.1
20260905125604 74 343 2.6 4.3 0.00 0.00 0.00 74 1010.1
20260905125103 73 25 3.5 7.0 0.00 0.00 0.00 74 1010.1
20260905124603 73 340 1.7 4.3 0.00 0.00 0.00 73 1010.1
20260905123604 73 0 2.6 5.2 0.00 0.00 0.00 74 1010.2
20260905123103 72 24 2.6 4.3 0.00 0.00 0.00 76 1010.1
20260905122603 71 351 2.6 5.2 0.00 0.00 0.00 76 1010.1
20260905122104 71 0 1.7 7.0 0.00 0.00 0.00 76 1010.3
20260905121603 71 347 3.5 7.0 0.00 0.00 0.00 76 1010.0
20260905120603 71 332 4.3 7.8 0.00 0.00 0.00 77 1010.0
20260905114604 69 338 4.3 7.0 0.00 0.00 0.00 79 1010.0
20260905114103 69 310 2.6 7.8 0.00 0.00 0.00 78 1010.0
20260905113603 69 276 0.9 6.1 0.00 0.00 0.00 79 1009.8
20260905112604 69 302 2.6 5.2 0.00 0.00 0.00 78 1009.7
20260905111604 68 341 0.9 4.3 0.00 0.00 0.00 78 1009.7
20260905111104 68 34 0.9 4.3 0.00 0.00 0.00 78 1009.7
20260905110603 68 314 2.6 7.8 0.00 0.00 0.00 78 1009.6
20260905105604 68 353 2.6 5.2 0.00 0.00 0.00 78 1009.4
20260905105103 68 38 0.9 5.2 0.00 0.00 0.00 78 1009.4
20260905104104 69 22 0.9 7.0 0.00 0.00 0.00 77 1009.2
20260905103604 69 38 1.7 7.8 0.00 0.00 0.00 77 1009.2
20260905103103 69 349 2.6 6.1 0.00 0.00 0.00 76 1009.3
20260905102104 69 20 1.7 5.2 0.00 0.00 0.00 76 1009.3
20260905101603 69 330 2.6 6.1 0.00 0.00 0.00 76 1009.1
20260905100605 69 19 2.6 7.0 0.00 0.00 0.00 76 1009.1
20260905095604 70 24 2.6 6.1 0.00 0.00 0.00 76 1009.2
20260905095103 70 8 2.6 7.0 0.00 0.00 0.00 75 1009.0
20260905094604 70 12 4.3 10.4 0.00 0.00 0.00 75 1009.0
20260905093604 70 28 5.2 12.2 0.00 0.00 0.00 75 1008.9
20260905093103 70 44 5.2 10.4 0.00 0.00 0.00 75 1008.9
20260905092603 70 36 2.6 8.7 0.00 0.00 0.00 75 1008.8
20260905092103 70 36 2.6 7.8 0.00 0.00 0.00 75 1008.8
20260905091603 70 17 2.6 10.4 0.00 0.00 0.00 74 1008.8